Location: Bakhuizen
(52.8696°N, 5.4575°E)
Time: 05:45:51
(UTC+00:00)

Nimbus 7 Rocket - Pass Details

Date: 28 September 2021
Orbit: 922 x 965 km, 99.4° (Epoch: 17 October)

Event Time Altitude Azimuth Distance (km) Brightness Sun altitude
Rises 23:20:05 0° 18° (NNE) 3,585 8.3 -39.5°
Reaches altitude 10° 23:22:32 10° 21° (NNE) 2,641 7.4 -39.5°
Enters shadow 23:25:08 27° 29° (NNE) 1,707 6.1 -39.5°
